Monroe, NC

8:01 PM EDT on September 29, 2016 (GMT -0400)
Monroe

Weather History for KEQY - December, 2012

Change the Weather History Date:

Tuesday, December 11, 2012

  Actual Average (KCLT) Record (KCLT)
Temperature  
Mean Temperature 54 °F 43 °F  
Max Temperature 61 °F 54 °F 79 °F (2007)
Min Temperature 46 °F 33 °F 13 °F (1957)
Degree Days  
Heating Degree Days 10 22  
Month to date heating degree days 226  
Since 1 July heating degree days 862  
Cooling Degree Days 0 0  
Month to date cooling degree days 0  
Year to date cooling degree days 1517  
Growing Degree Days 4 (Base 50)    
Moisture  
Dew Point 48 °F    
Average Humidity 75    
Maximum Humidity 100    
Minimum Humidity 51    
Precipitation  
Precipitation 0.00 in 0.11 in 1.69 in (1961)
Month to date precipitation 1.18  
Year to date precipitation 39.56  
Snow  
Snow 0.00 in 0.00 in 0.80 in (1915)
Month to date snowfall 0.0  
Since 1 July snowfall 0.1  
Snow Depth -    
Sea Level Pressure  
Sea Level Pressure 29.94 in    
Wind  
Wind Speed 8 mph (NW)    
Max Wind Speed 12 mph    
Max Gust Speed -    
Visibility 9 miles    
Events      
T = Trace of Precipitation, MM = Missing Value Source: NWS Daily Summary

Daily Weather History Graph

Daily Weather History Graph

Search for Another Location

Airport or City:

Trip Planner

Search our weather history database for the weather conditions in past years. The results will help you decide how hot, cold, wet, or windy it might be!

Date:

Astronomy

Dec. 11, 2012 Rise Set
Actual Time 7:20 AM EST 5:11 PM EST
Civil Twilight 6:52 AM EST 5:39 PM EST
Nautical Twilight 6:21 AM EST 6:10 PM EST
Astronomical Twilight 5:50 AM EST 6:41 PM EST
Moon 5:15 AM EST (12/11) 3:47 PM EST (12/11)
Length of Visible Light 10h 46m
Length of Day
9h 50m
Waning Crescent, 4% of the Moon is Illuminated
Dec 11
Waning Crescent
Dec 13
New
Dec 20
First Quarter
Dec 28
Full
Jan 4
Last Quarter

Hourly Weather History & Observations

Time (EST) Temp. Dew Point Humidity Pressure Visibility Wind Dir Wind Speed Gust Speed Precip Events Conditions
12:53 AM 61.0 °F 57.9 °F 90% 29.75 in 10.0 mi WSW 10.4 mph - N/A   Clear
1:53 AM 61.0 °F 57.9 °F 90% 29.77 in 10.0 mi WSW 9.2 mph - N/A   Mostly Cloudy
2:53 AM 61.0 °F 57.9 °F 90% 29.79 in 10.0 mi SW 8.1 mph - N/A   Overcast
3:53 AM 60.1 °F 57.0 °F 90% 29.80 in 10.0 mi SW 9.2 mph - N/A   Overcast
4:30 AM 59.0 °F 55.4 °F 88% 29.79 in 10.0 mi SW 9.2 mph - N/A   Scattered Clouds
4:53 AM 57.9 °F 55.9 °F 93% 29.81 in 10.0 mi SW 6.9 mph - N/A   Partly Cloudy
5:05 AM 59.0 °F 57.2 °F 94% 29.81 in 10.0 mi SW 6.9 mph - N/A   Mostly Cloudy
5:53 AM 57.0 °F 55.9 °F 96% 29.84 in 10.0 mi SSW 6.9 mph - N/A   Clear
6:53 AM 55.9 °F 55.0 °F 97% 29.86 in 7.0 mi SW 5.8 mph - N/A   Clear
7:53 AM 55.0 °F 55.0 °F 100% 29.90 in 5.0 mi WSW 6.9 mph - N/A   Scattered Clouds
8:06 AM 55.4 °F 55.4 °F 100% 29.88 in 4.0 mi WSW 8.1 mph - N/A   Mostly Cloudy
8:20 AM 55.4 °F 55.4 °F 100% 29.89 in 7.0 mi WSW 8.1 mph - N/A   Mostly Cloudy
8:53 AM 57.0 °F 55.9 °F 96% 29.92 in 9.0 mi West 5.8 mph - N/A   Mostly Cloudy
9:19 AM 57.2 °F 55.4 °F 94% 29.91 in 10.0 mi West 8.1 mph - N/A   Scattered Clouds
9:53 AM 57.0 °F 48.9 °F 74% 29.95 in 10.0 mi NNW 10.4 mph - N/A   Mostly Cloudy
10:00 AM 57.2 °F 48.2 °F 72% 29.94 in 10.0 mi North 9.2 mph - N/A   Mostly Cloudy
10:07 AM 57.2 °F 48.2 °F 72% 29.94 in 10.0 mi North 9.2 mph - N/A   Scattered Clouds
10:53 AM 57.9 °F 45.0 °F 62% 29.98 in 10.0 mi NNE 8.1 mph - N/A   Clear
11:53 AM 59.0 °F 44.1 °F 58% 29.96 in 10.0 mi North 4.6 mph - N/A   Clear
12:53 PM 59.0 °F 43.0 °F 55% 29.95 in 10.0 mi NNE 4.6 mph - N/A   Clear
1:53 PM 60.1 °F 42.1 °F 51% 29.97 in 10.0 mi NNE 4.6 mph - N/A   Clear
2:53 PM 60.1 °F 42.1 °F 51% 29.98 in 10.0 mi Calm Calm - N/A   Clear
3:53 PM 59.0 °F 41.0 °F 51% 30.00 in 10.0 mi North 6.9 mph - N/A   Overcast
4:53 PM 57.0 °F 39.9 °F 53% 30.03 in 10.0 mi North 8.1 mph - N/A   Scattered Clouds
5:53 PM 54.0 °F 37.9 °F 55% 30.05 in 10.0 mi NNE 8.1 mph - N/A   Mostly Cloudy
6:53 PM 53.1 °F 37.0 °F 55% 30.08 in 10.0 mi NNE 6.9 mph - N/A   Clear
7:53 PM 51.1 °F 36.0 °F 56% 30.10 in 10.0 mi NNE 11.5 mph - N/A   Clear
8:53 PM 50.0 °F 37.0 °F 61% 30.11 in 10.0 mi NE 8.1 mph - N/A   Clear
9:53 PM 50.0 °F 36.0 °F 59% 30.12 in 10.0 mi NE 10.4 mph - N/A   Clear
10:53 PM 48.0 °F 33.1 °F 56% 30.15 in 10.0 mi NNE 10.4 mph - N/A   Clear
11:53 PM 46.9 °F 32.0 °F 56% 30.17 in 10.0 mi NNE 9.2 mph - N/A   Clear